sat.trackr.live / text

‹ back to catalog

STARLINK-5541

NORAD 56475 · 2023-064AD

PAYLOAD ACTIVE UNKNOWN

§ Identity

Operator
Country
US
Launch date
2023-05-10
Launch site
AFWTR
Launch vehicle
Mass (kg)
RCS (m²)

Purposes: comms

External: N2YO · Heavens-Above · Gunter

§ Orbital elements

Epoch: 2026-05-24T19:53:27.804192Z

Period
96.11 min
Inclination
69.9987°
Eccentricity
0.0002973
Mean motion
14.98338773 rev/d
Perigee alt
570.0 km
Apogee alt
574.1 km
Semi-major
6,950.2 km
B*
1.0644e-4
RAAN
292.4998°
Arg perigee
268.1828°
Mean anomaly
91.8990°
Rev number
16,714

§ Raw data

STARLINK-55411 56475U 23064AD  26144.82879403  .00001177  00000+0  10644-3 0  99932 56475  69.9987 292.4998 0002973 268.1828  91.8990 14.98338773167144

JSON: /api/v1/satellites/56475 · /tle

For live sub-satellite position, see the globe view (requires WebGL).

§ Visibility from observer

Set your observer location to see the next 7 days of passes ≥ 10°. The values pass through the URL so the page stays shareable.

No JS? Fill the form by hand. The geolocation button needs JavaScript.